sat.trackr.live / text

‹ back to catalog

STARLINK-3244

NORAD 49741 · 2021-115T

PAYLOAD ACTIVE UNKNOWN

§ Identity

Operator
Country
US
Launch date
2021-12-02
Launch site
AFETR
Launch vehicle
Mass (kg)
RCS (m²)

Purposes: comms

External: N2YO · Heavens-Above · Gunter

§ Orbital elements

Epoch: 2026-09-08T16:10:00.938208Z

Period
94.01 min
Inclination
53.1603°
Eccentricity
0.0001260
Mean motion
15.31699248 rev/d
Perigee alt
469.9 km
Apogee alt
471.6 km
Semi-major
6,848.9 km
B*
-3.3162e-5
RAAN
34.8472°
Arg perigee
81.0880°
Mean anomaly
279.0264°
Rev number
26,333

§ Raw data

STARLINK-32441 49741U 21115T   26251.67362197 -.00001394  00000+0 -33162-4 0  99992 49741  53.1603  34.8472 0001260  81.0880 279.0264 15.31699248263332

JSON: /api/v1/satellites/49741 · /tle

For live sub-satellite position, see the globe view (requires WebGL).

§ Visibility from observer

Set your observer location to see the next 7 days of passes ≥ 10°. The values pass through the URL so the page stays shareable.

No JS? Fill the form by hand. The geolocation button needs JavaScript.